FW5817 Weather Reports


time (UTC)temp
F
wind
direction
speed
knots
gust
knots
rain 1hr
in
rain 24hr
in
rain mn
in
humidity
%
barometer
mb
20260504202506 73 185 2.6 12.2 0.00 0.00 0.00 41 1007.4
20260504202011 73 205 2.6 12.2 0.00 0.00 0.00 40 1007.6
20260504201515 73 191 2.6 12.2 0.00 0.00 0.00 41 1007.6
20260504201006 73 145 3.5 8.7 0.00 0.00 0.00 42 1007.6
20260504200510 73 273 3.5 10.4 0.00 0.00 0.00 43 1007.6
20260504200018 73 223 4.3 13.0 0.00 0.00 0.00 44 1007.8
20260504195509 73 209 7.0 13.0 0.00 0.00 0.00 42 1007.9
20260504195012 72 250 3.5 11.3 0.00 0.00 0.00 43 1008.1
20260504194520 72 198 3.5 12.2 0.00 0.00 0.00 43 1008.1
20260504194008 72 220 7.0 11.3 0.00 0.00 0.00 41 1008.2
20260504193509 72 163 6.1 13.9 0.00 0.00 0.00 44 1008.3
20260504193020 72 214 3.5 13.9 0.00 0.00 0.00 42 1008.2
20260504192510 72 294 2.6 8.7 0.00 0.00 0.00 42 1008.3
20260504192012 72 198 3.5 13.9 0.00 0.00 0.00 43 1008.4
20260504191521 71 175 8.7 14.8 0.00 0.00 0.00 43 1008.5
20260504191010 71 180 6.1 16.5 0.00 0.00 0.00 43 1008.5
20260504190507 71 223 6.1 16.5 0.00 0.00 0.00 44 1008.6
20260504190016 71 211 4.3 15.6 0.00 0.00 0.00 42 1008.8
20260504185508 71 211 4.3 13.0 0.00 0.00 0.00 43 1008.7
20260504185009 72 185 7.0 12.2 0.00 0.00 0.00 43 1008.8
20260504184524 71 296 3.5 11.3 0.00 0.00 0.00 41 1009.0
20260504184011 71 216 1.7 13.0 0.00 0.00 0.00 44 1008.9
20260504183509 70 204 5.2 13.0 0.00 0.00 0.00 44 1009.0
20260504183022 71 307 4.3 13.0 0.00 0.00 0.00 44 1009.1
20260504182508 71 217 3.5 12.2 0.00 0.00 0.00 44 1009.1
20260504182011 71 242 4.3 10.4 0.00 0.00 0.00 44 1009.2
20260504181523 70 178 2.6 8.7 0.00 0.00 0.00 44 1009.2
20260504181013 70 219 1.7 15.6 0.00 0.00 0.00 43 1009.4
20260504180510 70 184 3.5 15.6 0.00 0.00 0.00 45 1009.3
20260504180022 70 205 6.1 10.4 0.00 0.00 0.00 45 1009.4
20260504175504 70 211 2.6 13.9 0.00 0.00 0.00 45 1009.5
20260504175008 69 236 3.5 13.9 0.00 0.00 0.00 45 1009.5
20260504174520 70 225 2.6 8.7 0.00 0.00 0.00 46 1009.6
20260504174009 69 162 4.3 10.4 0.00 0.00 0.00 43 1009.7
20260504173504 69 202 1.7 10.4 0.00 0.00 0.00 45 1009.7
20260504173007 68 209 5.2 12.2 0.00 0.00 0.00 44 1009.8
20260504172504 68 200 5.2 12.2 0.00 0.00 0.00 45 1010.0
20260504172002 68 318 2.6 11.3 0.00 0.00 0.00 44 1009.9
20260504171510 68 145 2.6 15.6 0.00 0.00 0.00 45 1009.9
20260504171006 67 215 6.1 15.6 0.00 0.00 0.00 46 1010.0
20260504170507 67 149 5.2 13.0 0.00 0.00 0.00 46 1010.1
20260504151005 62 186 2.6 7.8 0.00 0.00 0.00 48 1011.8
20260504150504 62 207 3.5 7.8 0.00 0.00 0.00 48 1011.9
20260504141009 59 202 2.6 17.4 0.00 0.00 0.00 48 1012.0
20260504140504 59 219 7.8 16.5 0.00 0.00 0.00 46 1012.0
20260504130507 54 216 2.6 7.0 0.00 0.00 0.00 53 1012.4
20260504110508 47 196 0.0 0.0 0.00 0.00 0.00 61 1012.5
20260504100507 45 196 0.0 1.7 0.00 0.00 0.00 62 1012.8
20260504082004 45 196 0.0 1.7 0.00 0.00 0.00 62 1012.9
20260504081508 45 196 0.0 1.7 0.00 0.00 0.00 62 1012.9
20260504081003 45 196 0.0 1.7 0.00 0.00 0.00 62 1013.0
20260504080506 45 196 0.0 0.9 0.00 0.00 0.00 62 1013.0
20260504050508 45 239 0.0 0.0 0.00 0.00 0.00 62 1013.2
20260504045508 45 239 0.0 0.0 0.00 0.00 0.00 62 1013.2
20260504045008 45 239 0.0 0.0 0.00 0.00 0.00 62 1013.1
20260504044513 45 239 0.0 0.0 0.00 0.00 0.00 62 1013.3
20260504044005 45 239 0.0 0.0 0.00 0.00 0.00 62 1013.2
20260504043507 45 239 0.0 0.0 0.00 0.00 0.00 62 1013.3
20260504043022 45 239 0.0 0.0 0.00 0.00 0.00 62 1013.3
20260504042508 45 239 0.0 0.0 0.00 0.00 0.00 61 1013.3
20260504042008 45 239 0.0 0.0 0.00 0.00 0.00 62 1013.2
20260504041519 45 239 0.0 0.0 0.00 0.00 0.00 62 1013.2
20260504041007 45 239 0.0 0.0 0.00 0.00 0.00 62 1013.2
20260504040508 45 239 0.0 0.0 0.00 0.00 0.00 62 1013.2
20260504040029 46 239 0.0 0.0 0.00 0.00 0.00 62 1013.2
20260504035508 46 239 0.0 0.0 0.00 0.00 0.00 61 1013.3
20260504035009 46 239 0.0 0.0 0.00 0.00 0.00 61 1013.1
20260504034526 46 239 0.0 0.0 0.00 0.00 0.00 61 1013.0
20260504034008 46 239 0.0 0.0 0.00 0.00 0.00 61 1013.0
20260504033504 46 239 0.0 0.0 0.00 0.00 0.00 60 1012.9
20260504033013 46 239 0.0 0.0 0.00 0.00 0.00 59 1012.9
20260504032507 46 239 0.0 0.0 0.00 0.00 0.00 60 1012.9
20260504032010 47 239 0.0 0.0 0.00 0.00 0.00 61 1013.0
20260504031518 47 239 0.0 0.0 0.00 0.00 0.00 60 1012.9
20260504031008 47 239 0.0 0.0 0.00 0.00 0.00 59 1012.8
20260504030508 47 239 0.0 0.0 0.00 0.00 0.00 59 1012.8
20260504030024 48 239 0.0 0.0 0.00 0.00 0.00 58 1012.8
20260504025507 48 239 0.0 0.0 0.00 0.00 0.00 57 1012.8
20260504025013 48 239 0.0 0.0 0.00 0.00 0.00 57 1012.9
20260504024526 48 239 0.0 0.0 0.00 0.00 0.00 57 1012.9
20260504024008 48 239 0.0 0.0 0.00 0.00 0.00 57 1012.9
20260504023509 48 239 0.0 0.0 0.00 0.00 0.00 56 1012.9
20260504023028 49 239 0.0 0.0 0.00 0.00 0.00 56 1012.9
20260504022511 49 239 0.0 0.0 0.00 0.00 0.00 55 1012.9
20260504022005 49 239 0.0 0.0 0.00 0.00 0.00 55 1012.9
20260504021513 49 239 0.0 0.0 0.00 0.00 0.00 54 1012.9
20260504021008 49 239 0.0 0.0 0.00 0.00 0.00 54 1012.9
20260504020508 50 239 0.0 0.0 0.00 0.00 0.00 53 1012.9
20260504020018 50 239 0.0 0.0 0.00 0.00 0.00 53 1013.0
20260504015509 51 239 0.0 0.0 0.00 0.00 0.00 51 1012.9
20260504015008 51 239 0.0 0.0 0.00 0.00 0.00 51 1012.9
20260504014524 51 239 0.0 1.7 0.00 0.00 0.00 51 1012.9
20260504014009 51 239 0.0 1.7 0.00 0.00 0.00 50 1012.9
20260504013508 51 239 0.0 2.6 0.00 0.00 0.00 50 1012.9
20260504013031 51 239 0.9 2.6 0.00 0.00 0.00 51 1012.9
20260504012516 51 240 0.0 2.6 0.00 0.00 0.00 50 1012.8
20260504012010 52 240 0.9 2.6 0.00 0.00 0.00 50 1012.7
20260504011528 52 241 0.9 1.7 0.00 0.00 0.00 49 1012.7
20260504011012 52 241 0.9 1.7 0.00 0.00 0.00 50 1012.6
20260504010507 52 242 0.9 1.7 0.00 0.00 0.00 49 1012.6
20260504010018 53 317 0.0 2.6 0.00 0.00 0.00 48 1012.6
20260504005508 53 318 0.0 2.6 0.00 0.00 0.00 47 1012.7
20260504005009 53 321 0.9 2.6 0.00 0.00 0.00 48 1012.7
20260504004520 53 300 0.0 2.6 0.00 0.00 0.00 48 1012.6
20260504004009 53 205 0.0 2.6 0.00 0.00 0.00 48 1012.5
20260504003509 53 204 0.0 2.6 0.00 0.00 0.00 48 1012.5
20260504003026 53 202 0.0 2.6 0.00 0.00 0.00 47 1012.5
20260504002508 54 203 0.9 2.6 0.00 0.00 0.00 47 1012.5
20260504002010 54 234 0.0 2.6 0.00 0.00 0.00 46 1012.4
20260504001528 54 236 0.9 3.5 0.00 0.00 0.00 45 1012.2
20260504001011 55 281 0.0 3.5 0.00 0.00 0.00 44 1012.1
20260504000514 55 238 0.0 3.5 0.00 0.00 0.00 45 1012.0
20260504000030 55 189 0.9 3.5 0.00 0.00 0.00 44 1012.0
20260503235507 55 285 0.9 3.5 0.00 0.00 0.00 44 1012.0
20260503235010 56 256 0.9 3.5 0.00 0.00 0.00 43 1012.0
20260503234523 56 294 0.0 5.2 0.00 0.00 0.00 44 1011.8
20260503234003 56 250 1.7 7.8 0.00 0.00 0.00 43 1011.8
20260503233505 57 279 3.5 7.8 0.00 0.00 0.00 42 1011.7
20260503233003 57 219 1.7 9.6 0.00 0.00 0.00 42 1011.7
20260503232504 57 267 0.9 9.6 0.00 0.00 0.00 41 1011.7
20260503232006 58 265 3.5 7.8 0.00 0.00 0.00 41 1011.8
20260503231511 58 344 1.7 7.0 0.00 0.00 0.00 41 1011.8
20260503231004 58 242 1.7 9.6 0.00 0.00 0.00 42 1011.8
20260503230504 58 284 2.6 9.6 0.00 0.00 0.00 41 1011.7
20260503230014 58 292 3.5 9.6 0.00 0.00 0.00 40 1011.6
20260503225506 58 263 1.7 11.3 0.00 0.00 0.00 42 1011.6
20260503225008 58 284 5.2 11.3 0.00 0.00 0.00 40 1011.6
20260503224517 58 285 5.2 11.3 0.00 0.00 0.00 40 1011.5
20260503224011 58 262 4.3 11.3 0.00 0.00 0.00 40 1011.5
20260503223511 59 290 5.2 10.4 0.00 0.00 0.00 40 1011.6
20260503223021 59 299 4.3 10.4 0.00 0.00 0.00 40 1011.6
20260503222504 59 309 1.7 7.8 0.00 0.00 0.00 40 1011.5
20260503222004 59 316 4.3 9.6 0.00 0.00 0.00 40 1011.6
20260503221505 58 278 5.2 13.9 0.00 0.00 0.00 40 1011.7
20260503221006 58 284 5.2 13.9 0.00 0.00 0.00 41 1011.6
20260503220506 58 272 4.3 14.8 0.00 0.00 0.00 40 1011.6
20260503220011 58 134 7.8 14.8 0.00 0.00 0.00 39 1011.6
20260503215506 59 261 4.3 13.0 0.00 0.00 0.00 41 1011.5
20260503215011 59 303 4.3 12.2 0.00 0.00 0.00 40 1011.6
20260503214516 58 307 3.5 10.4 0.00 0.00 0.00 40 1011.5
20260503214007 59 288 5.2 12.2 0.00 0.00 0.00 40 1011.5
20260503213508 59 274 3.5 12.2 0.00 0.00 0.00 41 1011.5
20260503213019 58 334 4.3 12.2 0.00 0.00 0.00 39 1011.5
20260503212509 59 322 4.3 12.2 0.00 0.00 0.00 40 1011.5
20260503212010 59 289 4.3 12.2 0.00 0.00 0.00 42 1011.5
20260503211504 59 290 5.2 12.2 0.00 0.00 0.00 40 1011.5
20260503211003 58 281 4.3 17.4 0.00 0.00 0.00 42 1011.4
20260503210506 58 271 7.0 17.4 0.00 0.00 0.00 39 1011.5
20260503210015 57 279 4.3 10.4 0.00 0.00 0.00 43 1011.5
20260503205504 57 273 3.5 13.0 0.00 0.00 0.00 41 1011.6
20260503205007 58 271 5.2 13.9 0.00 0.00 0.00 39 1011.6
20260503204514 58 278 6.1 20.0 0.00 0.00 0.00 40 1011.6
20260503204009 58 306 6.1 20.0 0.00 0.00 0.00 42 1011.6
20260503203508 57 278 7.8 13.0 0.00 0.00 0.00 41 1011.6
20260503203019 58 274 4.3 12.2 0.00 0.00 0.00 42 1011.8